owner,sensor,date,latitude,longitude,vertical_datum,wind_speed,wind_to_direction,wind_speed_of_gust,qcFlag 
TCOON,ioos:station:TCOON:003:1,2013-05-01T00:00:00Z,26.8015,-97.4706,0.0,7.2,97.0,8.9,'11111222,11111222,11111222' 
TCOON,ioos:station:TCOON:003:1,2013-05-01T01:00:00Z,26.8015,-97.4706,0.0,6.4,95.0,7.0,'11111222,11111222,11111222' 
TCOON,ioos:station:TCOON:003:1,2013-05-01T02:00:00Z,26.8015,-97.4706,0.0,5.9,111.0,7.2,'11111222,11111222,11111222' 
TCOON,ioos:station:TCOON:003:1,2013-05-01T03:00:00Z,26.8015,-97.4706,0.0,7.7,121.0,9.3,'11111222,11111222,11111222' 
TCOON,ioos:station:TCOON:003:1,2013-05-01T04:00:00Z,26.8015,-97.4706,0.0,7.7,126.0,9.6,'11111222,11111222,11111222' 
TCOON,ioos:station:TCOON:003:1,2013-05-01T05:00:00Z,26.8015,-97.4706,0.0,7.9,145.0,8.5,'11111222,11111222,11111222' 
TCOON,ioos:station:TCOON:003:1,2013-05-01T06:00:00Z,26.8015,-97.4706,0.0,6.7,142.0,7.5,'11111222,11111222,11111222' 
TCOON,ioos:station:TCOON:003:1,2013-05-01T07:00:00Z,26.8015,-97.4706,0.0,5.2,139.0,6.3,'11111222,11111222,11111222' 
TCOON,ioos:station:TCOON:003:1,2013-05-01T08:00:00Z,26.8015,-97.4706,0.0,5.7,132.0,6.5,'11111222,11111222,11111222' 
TCOON,ioos:station:TCOON:003:1,2013-05-01T09:00:00Z,26.8015,-97.4706,0.0,6.3,139.0,7.5,'11111222,11111222,11111222' 
TCOON,ioos:station:TCOON:003:1,2013-05-01T10:00:00Z,26.8015,-97.4706,0.0,5.0,152.0,5.9,'11111222,11111222,11111222' 
TCOON,ioos:station:TCOON:003:1,2013-05-01T11:00:00Z,26.8015,-97.4706,0.0,5.4,159.0,6.3,'11111222,11111222,11111222' 
TCOON,ioos:station:TCOON:003:1,2013-05-01T12:00:00Z,26.8015,-97.4706,0.0,4.2,130.0,5.3,'11111222,11111222,11111222' 
TCOON,ioos:station:TCOON:003:1,2013-05-01T13:00:00Z,26.8015,-97.4706,0.0,4.1,129.0,4.4,'11111222,11111222,11111222' 
TCOON,ioos:station:TCOON:003:1,2013-05-01T14:00:00Z,26.8015,-97.4706,0.0,4.9,111.0,5.8,'11111222,11111222,11111222' 
TCOON,ioos:station:TCOON:003:1,2013-05-01T15:00:00Z,26.8015,-97.4706,0.0,5.0,100.0,6.0,'11111222,11111222,11111222' 
TCOON,ioos:station:TCOON:003:1,2013-05-01T16:00:00Z,26.8015,-97.4706,0.0,5.5,122.0,6.1,'11111222,11111222,11111222' 
TCOON,ioos:station:TCOON:003:1,2013-05-01T17:00:00Z,26.8015,-97.4706,0.0,6.0,126.0,7.4,'11111222,11111222,11111222' 
TCOON,ioos:station:TCOON:003:1,2013-05-01T18:00:00Z,26.8015,-97.4706,0.0,6.8,122.0,7.7,'11111222,11111222,11111222' 
TCOON,ioos:station:TCOON:003:1,2013-05-01T19:00:00Z,26.8015,-97.4706,0.0,7.5,125.0,9.1,'11111222,11111222,11111222' 
TCOON,ioos:station:TCOON:003:1,2013-05-01T20:00:00Z,26.8015,-97.4706,0.0,8.6,122.0,9.5,'11111222,11111222,11111222' 
TCOON,ioos:station:TCOON:003:1,2013-05-01T21:00:00Z,26.8015,-97.4706,0.0,7.7,129.0,8.5,'11111222,11111222,11111222' 
TCOON,ioos:station:TCOON:003:1,2013-05-01T22:00:00Z,26.8015,-97.4706,0.0,7.4,120.0,8.6,'11111222,11111222,11111222' 
TCOON,ioos:station:TCOON:003:1,2013-05-01T23:00:00Z,26.8015,-97.4706,0.0,6.4,107.0,8.5,'11111222,11111222,11111222' 
TCOON,ioos:station:TCOON:003:1,2013-05-02T00:00:00Z,26.8015,-97.4706,0.0,5.6,103.0,6.7,'11111222,11111222,11111222' 
TCOON,ioos:station:TCOON:003:1,2013-05-02T01:00:00Z,26.8015,-97.4706,0.0,5.3,106.0,6.1,'11111222,11111222,11111222' 
TCOON,ioos:station:TCOON:003:1,2013-05-02T02:00:00Z,26.8015,-97.4706,0.0,5.7,110.0,6.9,'11111222,11111222,11111222' 
TCOON,ioos:station:TCOON:003:1,2013-05-02T03:00:00Z,26.8015,-97.4706,0.0,5.9,114.0,6.9,'11111222,11111222,11111222' 
TCOON,ioos:station:TCOON:003:1,2013-05-02T04:00:00Z,26.8015,-97.4706,0.0,6.1,114.0,7.2,'11111222,11111222,11111222' 
TCOON,ioos:station:TCOON:003:1,2013-05-02T05:00:00Z,26.8015,-97.4706,0.0,4.7,99.0,5.6,'11111222,11111222,11111222' 
TCOON,ioos:station:TCOON:003:1,2013-05-02T06:00:00Z,26.8015,-97.4706,0.0,4.4,122.0,5.1,'11111222,11111222,11111222' 
TCOON,ioos:station:TCOON:003:1,2013-05-02T07:00:00Z,26.8015,-97.4706,0.0,3.7,100.0,4.8,'11111222,11111222,11111222' 
TCOON,ioos:station:TCOON:003:1,2013-05-02T08:00:00Z,26.8015,-97.4706,0.0,1.3,59.0,1.5,'11111222,11111222,11111222' 
TCOON,ioos:station:TCOON:003:1,2013-05-02T09:00:00Z,26.8015,-97.4706,0.0,1.0,8.0,1.2,'11111222,11111222,11111222' 
TCOON,ioos:station:TCOON:003:1,2013-05-02T10:00:00Z,26.8015,-97.4706,0.0,3.1,25.0,4.1,'11111222,11111222,11111222' 
TCOON,ioos:station:TCOON:003:1,2013-05-02T11:00:00Z,26.8015,-97.4706,0.0,2.1,67.0,2.8,'11111222,11111222,11111222' 
TCOON,ioos:station:TCOON:003:1,2013-05-02T12:00:00Z,26.8015,-97.4706,0.0,0.4,43.0,1.0,'11111222,11111222,11111222' 
TCOON,ioos:station:TCOON:003:1,2013-05-02T13:00:00Z,26.8015,-97.4706,0.0,1.7,126.0,2.4,'11111222,11111222,11111222' 
TCOON,ioos:station:TCOON:003:1,2013-05-02T14:00:00Z,26.8015,-97.4706,0.0,5.0,169.0,5.9,'11111222,11111222,11111222' 
TCOON,ioos:station:TCOON:003:1,2013-05-02T15:00:00Z,26.8015,-97.4706,0.0,2.7,329.0,3.2,'11111222,11111222,11111222' 
TCOON,ioos:station:TCOON:003:1,2013-05-02T16:00:00Z,26.8015,-97.4706,0.0,9.2,8.0,10.5,'11111222,11111222,11111222' 
TCOON,ioos:station:TCOON:003:1,2013-05-02T17:00:00Z,26.8015,-97.4706,0.0,9.5,0.0,12.2,'11111222,11111222,11111222' 
TCOON,ioos:station:TCOON:003:1,2013-05-02T18:00:00Z,26.8015,-97.4706,0.0,9.0,352.0,11.4,'11111222,11111222,11111222' 
TCOON,ioos:station:TCOON:003:1,2013-05-02T19:00:00Z,26.8015,-97.4706,0.0,13.2,2.0,16.2,'11111222,11111222,11111222' 
TCOON,ioos:station:TCOON:003:1,2013-05-02T20:00:00Z,26.8015,-97.4706,0.0,12.9,355.0,15.7,'11111222,11111222,11111222' 
TCOON,ioos:station:TCOON:003:1,2013-05-02T21:00:00Z,26.8015,-97.4706,0.0,11.3,354.0,15.3,'11111222,11111222,11111222' 
TCOON,ioos:station:TCOON:003:1,2013-05-02T22:00:00Z,26.8015,-97.4706,0.0,12.6,354.0,14.4,'11111222,11111222,11111222' 
TCOON,ioos:station:TCOON:003:1,2013-05-02T23:00:00Z,26.8015,-97.4706,0.0,12.1,359.0,13.8,'11111222,11111222,11111222' 
TCOON,ioos:station:TCOON:003:1,2013-05-03T00:00:00Z,26.8015,-97.4706,0.0,13.0,3.0,16.0,'11111222,11111222,11111222' 
TCOON,ioos:station:TCOON:003:1,2013-05-03T01:00:00Z,26.8015,-97.4706,0.0,15.5,2.0,18.2,'11111222,11111222,11111222' 
TCOON,ioos:station:TCOON:003:1,2013-05-03T02:00:00Z,26.8015,-97.4706,0.0,13.7,353.0,15.9,'11111222,11111222,11111222' 
TCOON,ioos:station:TCOON:003:1,2013-05-03T03:00:00Z,26.8015,-97.4706,0.0,11.6,352.0,14.5,'11111222,11111222,11111222' 
TCOON,ioos:station:TCOON:003:1,2013-05-03T04:00:00Z,26.8015,-97.4706,0.0,14.0,339.0,15.8,'11111222,11111222,11111222' 
TCOON,ioos:station:TCOON:003:1,2013-05-03T05:00:00Z,26.8015,-97.4706,0.0,12.4,345.0,15.8,'11111222,11111222,11111222' 
TCOON,ioos:station:TCOON:003:1,2013-05-03T06:00:00Z,26.8015,-97.4706,0.0,16.6,341.0,19.8,'11111222,11111222,11111222' 
TCOON,ioos:station:TCOON:003:1,2013-05-03T07:00:00Z,26.8015,-97.4706,0.0,15.4,343.0,17.2,'11111222,11111222,11111222' 
TCOON,ioos:station:TCOON:003:1,2013-05-03T08:00:00Z,26.8015,-97.4706,0.0,14.8,342.0,16.8,'11111222,11111222,11111222' 
TCOON,ioos:station:TCOON:003:1,2013-05-03T09:00:00Z,26.8015,-97.4706,0.0,14.0,339.0,16.9,'11111222,11111222,11111222' 
TCOON,ioos:station:TCOON:003:1,2013-05-03T10:00:00Z,26.8015,-97.4706,0.0,12.1,336.0,14.3,'11111222,11111222,11111222' 
TCOON,ioos:station:TCOON:003:1,2013-05-03T11:00:00Z,26.8015,-97.4706,0.0,13.9,341.0,17.4,'11111222,11111222,11111222' 
TCOON,ioos:station:TCOON:003:1,2013-05-03T12:00:00Z,26.8015,-97.4706,0.0,15.2,340.0,17.1,'11111222,11111222,11111222' 
TCOON,ioos:station:TCOON:003:1,2013-05-03T13:00:00Z,26.8015,-97.4706,0.0,12.8,346.0,14.7,'11111222,11111222,11111222' 
TCOON,ioos:station:TCOON:003:1,2013-05-03T14:00:00Z,26.8015,-97.4706,0.0,12.6,343.0,15.8,'11111222,11111222,11111222' 
TCOON,ioos:station:TCOON:003:1,2013-05-03T15:00:00Z,26.8015,-97.4706,0.0,10.0,346.0,14.4,'11111222,11111222,11111222' 
TCOON,ioos:station:TCOON:003:1,2013-05-03T16:00:00Z,26.8015,-97.4706,0.0,10.4,341.0,13.0,'11111222,11111222,11111222' 
TCOON,ioos:station:TCOON:003:1,2013-05-03T17:00:00Z,26.8015,-97.4706,0.0,9.7,328.0,13.8,'11111222,11111222,11111222' 
TCOON,ioos:station:TCOON:003:1,2013-05-03T18:00:00Z,26.8015,-97.4706,0.0,10.2,338.0,12.2,'11111222,11111222,11111222' 
TCOON,ioos:station:TCOON:003:1,2013-05-03T19:00:00Z,26.8015,-97.4706,0.0,9.7,328.0,11.2,'11111222,11111222,11111222' 
TCOON,ioos:station:TCOON:003:1,2013-05-03T20:00:00Z,26.8015,-97.4706,0.0,7.6,337.0,10.2,'11111222,11111222,11111222' 
TCOON,ioos:station:TCOON:003:1,2013-05-03T21:00:00Z,26.8015,-97.4706,0.0,8.6,11.0,11.5,'11111222,11111222,11111222' 
TCOON,ioos:station:TCOON:003:1,2013-05-03T22:00:00Z,26.8015,-97.4706,0.0,9.1,9.0,10.1,'11111222,11111222,11111222' 
TCOON,ioos:station:TCOON:003:1,2013-05-03T23:00:00Z,26.8015,-97.4706,0.0,6.8,9.0,9.2,'11111222,11111222,11111222' 
TCOON,ioos:station:TCOON:003:1,2013-05-04T00:00:00Z,26.8015,-97.4706,0.0,4.7,17.0,5.5,'11111222,11111222,11111222' 
TCOON,ioos:station:TCOON:003:1,2013-05-04T01:00:00Z,26.8015,-97.4706,0.0,4.2,18.0,4.8,'11111222,11111222,11111222' 
TCOON,ioos:station:TCOON:003:1,2013-05-04T02:00:00Z,26.8015,-97.4706,0.0,2.8,32.0,4.0,'11111222,11111222,11111222' 
TCOON,ioos:station:TCOON:003:1,2013-05-04T03:00:00Z,26.8015,-97.4706,0.0,3.2,32.0,3.6,'11111222,11111222,11111222' 
TCOON,ioos:station:TCOON:003:1,2013-05-04T04:00:00Z,26.8015,-97.4706,0.0,2.9,36.0,3.1,'11111222,11111222,11111222' 
TCOON,ioos:station:TCOON:003:1,2013-05-04T05:00:00Z,26.8015,-97.4706,0.0,2.4,42.0,2.5,'11111222,11111222,11111222' 
TCOON,ioos:station:TCOON:003:1,2013-05-04T06:00:00Z,26.8015,-97.4706,0.0,1.8,49.0,2.0,'11111222,11111222,11111222' 
TCOON,ioos:station:TCOON:003:1,2013-05-04T07:00:00Z,26.8015,-97.4706,0.0,2.0,213.0,2.3,'11111222,11111222,11111222' 
TCOON,ioos:station:TCOON:003:1,2013-05-04T08:00:00Z,26.8015,-97.4706,0.0,2.0,225.0,2.4,'11111222,11111222,11111222' 
TCOON,ioos:station:TCOON:003:1,2013-05-04T09:00:00Z,26.8015,-97.4706,0.0,3.0,229.0,3.6,'11111222,11111222,11111222' 
TCOON,ioos:station:TCOON:003:1,2013-05-04T10:00:00Z,26.8015,-97.4706,0.0,3.0,230.0,3.5,'11111222,11111222,11111222' 
TCOON,ioos:station:TCOON:003:1,2013-05-04T11:00:00Z,26.8015,-97.4706,0.0,4.0,237.0,4.4,'11111222,11111222,11111222' 
TCOON,ioos:station:TCOON:003:1,2013-05-04T12:00:00Z,26.8015,-97.4706,0.0,2.7,236.0,3.5,'11111222,11111222,11111222' 
TCOON,ioos:station:TCOON:003:1,2013-05-04T13:00:00Z,26.8015,-97.4706,0.0,2.6,223.0,2.8,'11111222,11111222,11111222' 
TCOON,ioos:station:TCOON:003:1,2013-05-04T14:00:00Z,26.8015,-97.4706,0.0,4.1,165.0,4.9,'11111222,11111222,11111222' 
TCOON,ioos:station:TCOON:003:1,2013-05-04T15:00:00Z,26.8015,-97.4706,0.0,5.5,146.0,6.6,'11111222,11111222,11111222' 
TCOON,ioos:station:TCOON:003:1,2013-05-04T16:00:00Z,26.8015,-97.4706,0.0,5.7,150.0,6.9,'11111222,11111222,11111222' 
TCOON,ioos:station:TCOON:003:1,2013-05-04T17:00:00Z,26.8015,-97.4706,0.0,5.0,146.0,6.4,'11111222,11111222,11111222' 
TCOON,ioos:station:TCOON:003:1,2013-05-04T18:00:00Z,26.8015,-97.4706,0.0,5.3,141.0,6.1,'11111222,11111222,11111222' 
TCOON,ioos:station:TCOON:003:1,2013-05-04T19:00:00Z,26.8015,-97.4706,0.0,6.2,144.0,7.0,'11111222,11111222,11111222' 
TCOON,ioos:station:TCOON:003:1,2013-05-04T20:00:00Z,26.8015,-97.4706,0.0,7.2,158.0,7.9,'11111222,11111222,11111222' 
TCOON,ioos:station:TCOON:003:1,2013-05-04T21:00:00Z,26.8015,-97.4706,0.0,8.0,127.0,9.8,'11111222,11111222,11111222' 
TCOON,ioos:station:TCOON:003:1,2013-05-04T22:00:00Z,26.8015,-97.4706,0.0,9.2,133.0,10.3,'11111222,11111222,11111222' 
TCOON,ioos:station:TCOON:003:1,2013-05-04T23:00:00Z,26.8015,-97.4706,0.0,7.9,139.0,9.0,'11111222,11111222,11111222' 
TCOON,ioos:station:TCOON:003:1,2013-05-05T00:00:00Z,26.8015,-97.4706,0.0,9.6,147.0,11.1,'11111222,11111222,11111222' 
TCOON,ioos:station:TCOON:003:1,2013-05-05T01:00:00Z,26.8015,-97.4706,0.0,8.1,144.0,9.0,'11111222,11111222,11111222' 
TCOON,ioos:station:TCOON:003:1,2013-05-05T02:00:00Z,26.8015,-97.4706,0.0,7.7,147.0,8.8,'11111222,11111222,11111222' 
TCOON,ioos:station:TCOON:003:1,2013-05-05T03:00:00Z,26.8015,-97.4706,0.0,6.4,154.0,7.5,'11111222,11111222,11111222' 
TCOON,ioos:station:TCOON:003:1,2013-05-05T04:00:00Z,26.8015,-97.4706,0.0,5.6,156.0,7.2,'11111222,11111222,11111222' 
TCOON,ioos:station:TCOON:003:1,2013-05-05T05:00:00Z,26.8015,-97.4706,0.0,7.7,162.0,8.8,'11111222,11111222,11111222' 
TCOON,ioos:station:TCOON:003:1,2013-05-05T06:00:00Z,26.8015,-97.4706,0.0,3.3,190.0,4.3,'11111222,11111222,11111222' 
TCOON,ioos:station:TCOON:003:1,2013-05-05T07:00:00Z,26.8015,-97.4706,0.0,3.0,183.0,3.2,'11111222,11111222,11111222' 
TCOON,ioos:station:TCOON:003:1,2013-05-05T08:00:00Z,26.8015,-97.4706,0.0,3.3,186.0,3.7,'11111222,11111222,11111222' 
TCOON,ioos:station:TCOON:003:1,2013-05-05T09:00:00Z,26.8015,-97.4706,0.0,3.0,191.0,3.8,'11111222,11111222,11111222' 
TCOON,ioos:station:TCOON:003:1,2013-05-05T10:00:00Z,26.8015,-97.4706,0.0,2.8,183.0,3.3,'11111222,11111222,11111222' 
TCOON,ioos:station:TCOON:003:1,2013-05-05T11:00:00Z,26.8015,-97.4706,0.0,2.0,189.0,2.1,'11111222,11111222,11111222' 
TCOON,ioos:station:TCOON:003:1,2013-05-05T12:00:00Z,26.8015,-97.4706,0.0,0.0,155.0,0.5,'11111222,11111222,11111222' 
TCOON,ioos:station:TCOON:003:1,2013-05-05T13:00:00Z,26.8015,-97.4706,0.0,0.2,155.0,0.5,'11111222,11111222,11111222' 
TCOON,ioos:station:TCOON:003:1,2013-05-05T14:00:00Z,26.8015,-97.4706,0.0,2.0,106.0,2.3,'11111222,11111222,11111222' 
TCOON,ioos:station:TCOON:003:1,2013-05-05T15:00:00Z,26.8015,-97.4706,0.0,1.7,121.0,2.6,'11111222,11111222,11111222' 
TCOON,ioos:station:TCOON:003:1,2013-05-05T16:00:00Z,26.8015,-97.4706,0.0,4.8,45.0,5.8,'11111222,11111222,11111222' 
TCOON,ioos:station:TCOON:003:1,2013-05-05T17:00:00Z,26.8015,-97.4706,0.0,6.0,51.0,7.6,'11111222,11111222,11111222' 
TCOON,ioos:station:TCOON:003:1,2013-05-05T18:00:00Z,26.8015,-97.4706,0.0,6.4,55.0,9.6,'11111222,11111222,11111222' 
TCOON,ioos:station:TCOON:003:1,2013-05-05T19:00:00Z,26.8015,-97.4706,0.0,7.2,74.0,9.2,'11111222,11111222,11111222' 
TCOON,ioos:station:TCOON:003:1,2013-05-05T20:00:00Z,26.8015,-97.4706,0.0,6.3,79.0,8.1,'11111222,11111222,11111222' 
TCOON,ioos:station:TCOON:003:1,2013-05-05T21:00:00Z,26.8015,-97.4706,0.0,5.5,81.0,7.5,'11111222,11111222,11111222' 
TCOON,ioos:station:TCOON:003:1,2013-05-05T22:00:00Z,26.8015,-97.4706,0.0,5.6,112.0,7.7,'11111222,11111222,11111222' 
TCOON,ioos:station:TCOON:003:1,2013-05-05T23:00:00Z,26.8015,-97.4706,0.0,5.8,113.0,6.9,'11111222,11111222,11111222' 
TCOON,ioos:station:TCOON:003:1,2013-05-06T00:00:00Z,26.8015,-97.4706,0.0,5.8,125.0,7.4,'11111222,11111222,11111222' 
TCOON,ioos:station:TCOON:003:1,2013-05-06T01:00:00Z,26.8015,-97.4706,0.0,6.0,134.0,7.4,'11111222,11111222,11111222' 
TCOON,ioos:station:TCOON:003:1,2013-05-06T02:00:00Z,26.8015,-97.4706,0.0,6.0,145.0,7.1,'11111222,11111222,11111222' 
TCOON,ioos:station:TCOON:003:1,2013-05-06T03:00:00Z,26.8015,-97.4706,0.0,6.0,148.0,7.0,'11111222,11111222,11111222' 
TCOON,ioos:station:TCOON:003:1,2013-05-06T04:00:00Z,26.8015,-97.4706,0.0,5.7,146.0,6.8,'11111222,11111222,11111222' 
TCOON,ioos:station:TCOON:003:1,2013-05-06T05:00:00Z,26.8015,-97.4706,0.0,5.0,144.0,5.8,'11111222,11111222,11111222' 
TCOON,ioos:station:TCOON:003:1,2013-05-06T06:00:00Z,26.8015,-97.4706,0.0,4.4,144.0,5.1,'11111222,11111222,11111222' 
TCOON,ioos:station:TCOON:003:1,2013-05-06T07:00:00Z,26.8015,-97.4706,0.0,4.2,149.0,5.0,'11111222,11111222,11111222' 
TCOON,ioos:station:TCOON:003:1,2013-05-06T08:00:00Z,26.8015,-97.4706,0.0,3.4,137.0,4.3,'11111222,11111222,11111222' 
TCOON,ioos:station:TCOON:003:1,2013-05-06T09:00:00Z,26.8015,-97.4706,0.0,3.2,136.0,3.8,'11111222,11111222,11111222' 
TCOON,ioos:station:TCOON:003:1,2013-05-06T10:00:00Z,26.8015,-97.4706,0.0,3.4,126.0,4.3,'11111222,11111222,11111222' 
TCOON,ioos:station:TCOON:003:1,2013-05-06T11:00:00Z,26.8015,-97.4706,0.0,3.8,115.0,4.3,'11111222,11111222,11111222' 
TCOON,ioos:station:TCOON:003:1,2013-05-06T12:00:00Z,26.8015,-97.4706,0.0,2.8,117.0,3.5,'11111222,11111222,11111222' 
TCOON,ioos:station:TCOON:003:1,2013-05-06T13:00:00Z,26.8015,-97.4706,0.0,3.6,137.0,4.2,'11111222,11111222,11111222' 
TCOON,ioos:station:TCOON:003:1,2013-05-06T14:00:00Z,26.8015,-97.4706,0.0,3.9,177.0,4.3,'11111222,11111222,11111222' 
TCOON,ioos:station:TCOON:003:1,2013-05-06T15:00:00Z,26.8015,-97.4706,0.0,3.9,180.0,4.2,'11111222,11111222,11111222' 
TCOON,ioos:station:TCOON:003:1,2013-05-06T16:00:00Z,26.8015,-97.4706,0.0,3.7,153.0,4.6,'11111222,11111222,11111222' 
TCOON,ioos:station:TCOON:003:1,2013-05-06T17:00:00Z,26.8015,-97.4706,0.0,3.7,155.0,5.0,'11111222,11111222,11111222' 
TCOON,ioos:station:TCOON:003:1,2013-05-06T18:00:00Z,26.8015,-97.4706,0.0,6.7,114.0,8.3,'11111222,11111222,11111222' 
TCOON,ioos:station:TCOON:003:1,2013-05-06T19:00:00Z,26.8015,-97.4706,0.0,7.3,113.0,8.9,'11111222,11111222,11111222' 
TCOON,ioos:station:TCOON:003:1,2013-05-06T20:00:00Z,26.8015,-97.4706,0.0,6.7,117.0,9.1,'11111222,11111222,11111222' 
TCOON,ioos:station:TCOON:003:1,2013-05-06T21:00:00Z,26.8015,-97.4706,0.0,6.0,122.0,9.5,'11111222,11111222,11111222' 
TCOON,ioos:station:TCOON:003:1,2013-05-06T22:00:00Z,26.8015,-97.4706,0.0,6.4,103.0,8.2,'11111222,11111222,11111222' 
TCOON,ioos:station:TCOON:003:1,2013-05-06T23:00:00Z,26.8015,-97.4706,0.0,6.0,103.0,8.7,'11111222,11111222,11111222' 
TCOON,ioos:station:TCOON:003:1,2013-05-07T00:00:00Z,26.8015,-97.4706,0.0,6.9,106.0,8.1,'11111222,11111222,11111222' 
TCOON,ioos:station:TCOON:003:1,2013-05-07T01:00:00Z,26.8015,-97.4706,0.0,6.4,119.0,7.8,'11111222,11111222,11111222' 
TCOON,ioos:station:TCOON:003:1,2013-05-07T02:00:00Z,26.8015,-97.4706,0.0,5.7,129.0,7.2,'11111222,11111222,11111222' 
TCOON,ioos:station:TCOON:003:1,2013-05-07T03:00:00Z,26.8015,-97.4706,0.0,6.0,137.0,7.3,'11111222,11111222,11111222' 
TCOON,ioos:station:TCOON:003:1,2013-05-07T04:00:00Z,26.8015,-97.4706,0.0,6.6,152.0,7.3,'11111222,11111222,11111222' 
TCOON,ioos:station:TCOON:003:1,2013-05-07T05:00:00Z,26.8015,-97.4706,0.0,6.0,146.0,7.1,'11111222,11111222,11111222' 
TCOON,ioos:station:TCOON:003:1,2013-05-07T06:00:00Z,26.8015,-97.4706,0.0,5.8,145.0,6.7,'11111222,11111222,11111222' 
TCOON,ioos:station:TCOON:003:1,2013-05-07T07:00:00Z,26.8015,-97.4706,0.0,4.6,147.0,5.2,'11111222,11111222,11111222' 
TCOON,ioos:station:TCOON:003:1,2013-05-07T08:00:00Z,26.8015,-97.4706,0.0,3.0,198.0,3.4,'11111222,11111222,11111222' 
TCOON,ioos:station:TCOON:003:1,2013-05-07T09:00:00Z,26.8015,-97.4706,0.0,3.4,182.0,3.7,'11111222,11111222,11111222' 
TCOON,ioos:station:TCOON:003:1,2013-05-07T10:00:00Z,26.8015,-97.4706,0.0,1.7,77.0,2.5,'11111222,11111222,11111222' 
TCOON,ioos:station:TCOON:003:1,2013-05-07T11:00:00Z,26.8015,-97.4706,0.0,2.3,58.0,2.7,'11111222,11111222,11111222' 
TCOON,ioos:station:TCOON:003:1,2013-05-07T12:00:00Z,26.8015,-97.4706,0.0,2.5,107.0,2.8,'11111222,11111222,11111222' 
TCOON,ioos:station:TCOON:003:1,2013-05-07T13:00:00Z,26.8015,-97.4706,0.0,5.0,115.0,6.3,'11111222,11111222,11111222' 
TCOON,ioos:station:TCOON:003:1,2013-05-07T14:00:00Z,26.8015,-97.4706,0.0,5.5,108.0,6.8,'11111222,11111222,11111222' 
TCOON,ioos:station:TCOON:003:1,2013-05-07T15:00:00Z,26.8015,-97.4706,0.0,4.6,109.0,7.0,'11111222,11111222,11111222' 
TCOON,ioos:station:TCOON:003:1,2013-05-07T16:00:00Z,26.8015,-97.4706,0.0,6.3,117.0,8.0,'11111222,11111222,11111222' 
TCOON,ioos:station:TCOON:003:1,2013-05-07T17:00:00Z,26.8015,-97.4706,0.0,5.4,121.0,7.4,'11111222,11111222,11111222' 
TCOON,ioos:station:TCOON:003:1,2013-05-07T18:00:00Z,26.8015,-97.4706,0.0,5.9,115.0,7.5,'11111222,11111222,11111222' 
TCOON,ioos:station:TCOON:003:1,2013-05-07T19:00:00Z,26.8015,-97.4706,0.0,6.8,122.0,9.1,'11111222,11111222,11111222' 
TCOON,ioos:station:TCOON:003:1,2013-05-07T20:00:00Z,26.8015,-97.4706,0.0,7.7,121.0,8.9,'11111222,11111222,11111222' 
TCOON,ioos:station:TCOON:003:1,2013-05-07T21:00:00Z,26.8015,-97.4706,0.0,8.5,122.0,10.0,'11111222,11111222,11111222' 
TCOON,ioos:station:TCOON:003:1,2013-05-07T22:00:00Z,26.8015,-97.4706,0.0,9.0,123.0,10.3,'11111222,11111222,11111222' 
TCOON,ioos:station:TCOON:003:1,2013-05-07T23:00:00Z,26.8015,-97.4706,0.0,9.5,121.0,11.0,'11111222,11111222,11111222' 
TCOON,ioos:station:TCOON:003:1,2013-05-08T00:00:00Z,26.8015,-97.4706,0.0,9.5,132.0,12.0,'11111222,11111222,11111222' 
TCOON,ioos:station:TCOON:003:1,2013-05-08T01:00:00Z,26.8015,-97.4706,0.0,8.2,130.0,10.4,'11111222,11111222,11111222' 
TCOON,ioos:station:TCOON:003:1,2013-05-08T02:00:00Z,26.8015,-97.4706,0.0,8.3,130.0,10.1,'11111222,11111222,11111222' 
TCOON,ioos:station:TCOON:003:1,2013-05-08T03:00:00Z,26.8015,-97.4706,0.0,8.1,143.0,9.3,'11111222,11111222,11111222' 
TCOON,ioos:station:TCOON:003:1,2013-05-08T04:00:00Z,26.8015,-97.4706,0.0,9.2,153.0,10.3,'11111222,11111222,11111222' 
TCOON,ioos:station:TCOON:003:1,2013-05-08T05:00:00Z,26.8015,-97.4706,0.0,10.5,164.0,12.0,'11111222,11111222,11111222' 
TCOON,ioos:station:TCOON:003:1,2013-05-08T06:00:00Z,26.8015,-97.4706,0.0,10.1,163.0,11.5,'11111222,11111222,11111222' 
TCOON,ioos:station:TCOON:003:1,2013-05-08T07:00:00Z,26.8015,-97.4706,0.0,7.6,179.0,8.4,'11111222,11111222,11111222' 
TCOON,ioos:station:TCOON:003:1,2013-05-08T08:00:00Z,26.8015,-97.4706,0.0,7.4,188.0,8.7,'11111222,11111222,11111222' 
TCOON,ioos:station:TCOON:003:1,2013-05-08T09:00:00Z,26.8015,-97.4706,0.0,8.5,159.0,10.4,'11111222,11111222,11111222' 
TCOON,ioos:station:TCOON:003:1,2013-05-08T10:00:00Z,26.8015,-97.4706,0.0,8.9,164.0,10.9,'11111222,11111222,11111222' 
TCOON,ioos:station:TCOON:003:1,2013-05-08T11:00:00Z,26.8015,-97.4706,0.0,5.7,186.0,6.6,'11111222,11111222,11111222' 
TCOON,ioos:station:TCOON:003:1,2013-05-08T12:00:00Z,26.8015,-97.4706,0.0,7.9,165.0,8.9,'11111222,11111222,11111222' 
TCOON,ioos:station:TCOON:003:1,2013-05-08T13:00:00Z,26.8015,-97.4706,0.0,6.6,153.0,7.2,'11111222,11111222,11111222' 
TCOON,ioos:station:TCOON:003:1,2013-05-08T14:00:00Z,26.8015,-97.4706,0.0,8.0,156.0,9.0,'11111222,11111222,11111222' 
TCOON,ioos:station:TCOON:003:1,2013-05-08T15:00:00Z,26.8015,-97.4706,0.0,9.3,158.0,10.3,'11111222,11111222,11111222' 
TCOON,ioos:station:TCOON:003:1,2013-05-08T16:00:00Z,26.8015,-97.4706,0.0,8.4,155.0,10.4,'11111222,11111222,11111222' 
TCOON,ioos:station:TCOON:003:1,2013-05-08T17:00:00Z,26.8015,-97.4706,0.0,8.7,157.0,9.7,'11111222,11111222,11111222' 
TCOON,ioos:station:TCOON:003:1,2013-05-08T18:00:00Z,26.8015,-97.4706,0.0,8.5,151.0,10.8,'11111222,11111222,11111222' 
TCOON,ioos:station:TCOON:003:1,2013-05-08T19:00:00Z,26.8015,-97.4706,0.0,9.2,147.0,12.0,'11111222,11111222,11111222' 
TCOON,ioos:station:TCOON:003:1,2013-05-08T20:00:00Z,26.8015,-97.4706,0.0,10.5,136.0,12.6,'11111222,11111222,11111222' 
TCOON,ioos:station:TCOON:003:1,2013-05-08T21:00:00Z,26.8015,-97.4706,0.0,10.6,138.0,13.2,'11111222,11111222,11111222' 
TCOON,ioos:station:TCOON:003:1,2013-05-08T22:00:00Z,26.8015,-97.4706,0.0,10.3,134.0,12.4,'11111222,11111222,11111222' 
TCOON,ioos:station:TCOON:003:1,2013-05-08T23:00:00Z,26.8015,-97.4706,0.0,10.5,137.0,11.9,'11111222,11111222,11111222' 
TCOON,ioos:station:TCOON:003:1,2013-05-09T00:00:00Z,26.8015,-97.4706,0.0,9.6,134.0,11.1,'11111222,11111222,11111222' 
TCOON,ioos:station:TCOON:003:1,2013-05-09T01:00:00Z,26.8015,-97.4706,0.0,8.7,139.0,10.3,'11111222,11111222,11111222' 
TCOON,ioos:station:TCOON:003:1,2013-05-09T02:00:00Z,26.8015,-97.4706,0.0,8.4,139.0,10.6,'11111222,11111222,11111222' 
TCOON,ioos:station:TCOON:003:1,2013-05-09T03:00:00Z,26.8015,-97.4706,0.0,8.7,141.0,10.4,'11111222,11111222,11111222' 
TCOON,ioos:station:TCOON:003:1,2013-05-09T04:00:00Z,26.8015,-97.4706,0.0,9.4,150.0,11.4,'11111222,11111222,11111222' 
TCOON,ioos:station:TCOON:003:1,2013-05-09T05:00:00Z,26.8015,-97.4706,0.0,9.2,148.0,11.4,'11111222,11111222,11111222' 
TCOON,ioos:station:TCOON:003:1,2013-05-09T06:00:00Z,26.8015,-97.4706,0.0,9.7,149.0,11.1,'11111222,11111222,11111222' 
TCOON,ioos:station:TCOON:003:1,2013-05-09T07:00:00Z,26.8015,-97.4706,0.0,8.3,149.0,10.0,'11111222,11111222,11111222' 
TCOON,ioos:station:TCOON:003:1,2013-05-09T08:00:00Z,26.8015,-97.4706,0.0,8.9,150.0,10.8,'11111222,11111222,11111222' 
TCOON,ioos:station:TCOON:003:1,2013-05-09T09:00:00Z,26.8015,-97.4706,0.0,8.0,143.0,9.7,'11111222,11111222,11111222' 
TCOON,ioos:station:TCOON:003:1,2013-05-09T10:00:00Z,26.8015,-97.4706,0.0,7.6,148.0,8.9,'11111222,11111222,11111222' 